Location: Indian Hills
(32.9760°N, 85.9450°W)
Time: 04:48:25
(UTC+00:00)

Okean 1-7 - Pass Details

Date: 09 December 2019
Orbit: 590 x 619 km, 82.5° (Epoch: 28 January)

Event Time Altitude Azimuth Distance (km) Brightness Sun altitude
Exits shadow 11:24:41 - 349° (N) 2,713 6.1 -14.4°
Reaches altitude 10° 11:26:29 10° 347° (NNW) 1,988 5.4 -14.1°
Maximum altitude 11:30:50 65° 266° (W) 679 3.0 -13.2°
Drops below altitude 10° 11:35:09 10° 184° (S) 1,966 5.8 -12.3°
Sets 11:37:22 0° 182° (S) 2,863 6.7 -11.9°
